Weather in Sosny

Russia / Moscow Oblast     55°43′54″N   37°03′29″E
temp.,
°C
wind,
m/s
gust,
m/s
humid.,
%
clouds,
%
prec.,
mm/h
press.,
hPa
HPBL,
m
20 september, mon
mon2000:00+4ene81689100 5.6 1017917
03:00+4ene71693100 11.2 1016844
06:00+5e71593100 2.3 1015908
09:00+5e71493100 3.6 10161037
12:00+5e71593100 1.6 1016996
15:00+5e71493100 2.3 10161040
18:00+5e71495100 1.3 1016988
21:00+5e71493100 2.2 1016938
21 september, tue
tue2100:00+5e61394100 2.9 1015879
03:00+6e61294100 4.6 1014879
06:00+6e61194100 1.5 1014835
09:00+6e51095100 1.9 1014728
12:00+6e51095100 1.1 1014660
15:00+6e4995100 1.4 1013608
18:00+6ene4897100 0.3 1013527
21:00+6ene4896100 1.3 1013459
22 september, wed
wed2200:00+5ne3697100 2.3 1013413
03:00+5ne3697100 3.8 1012411
06:00+5ne3797100 0.5 1012456
09:00+6ne3696100 0.7 1012520
12:00+5ne3694100 0.4 1013529
15:00+5ne2494100 2.4 1013797
18:00+5ne2496100 1.1 1013484
21:00+5ene2497100 1.7 1014310
23 september, thu
thu2300:00+6ne2397100 0.0 1014205
03:00+6ne2398100 0.1 1014168
06:00+6nne1398100 0.6 1014128
09:00+6n1298100 1.3 1014129
12:00+7sse1197100 1.3 1014153
15:00+8s1391100 1.4 1015313
18:00+8se2391100 0.3 101585
21:00+7s3889100 0.6 1015354
24 september, fri
fri2400:00+7sse2594100 0.1 1014236
03:00+6s4792100 0.9 1014662
06:00+6sse3793100 0.1 1013330
09:00+6sse3891100 0.1 1012494
12:00+8s4882100 0.1 1010836
15:00+10s576857 0.2 10081199
18:00+8s4979100 0.2 1008753
21:00+7s4108391 0.3 1007633